Regional Weather Roundup
Issued by NWS Charleston, SC

Current Version | Previous Version | Graphics & Text | Print | Product List | Glossary On
Versions: 1 2 3 4 5 6 7 8 9 10 11 12 13 14 15 16 17 18 19 20 21 22 23 24 25 26 27 28 29 30 31 32 33 34 35 36 37 38 39 40 41 42 43 44 45 46 47 48 49 50
000
ASUS42 KCHS 282327
RWRCHS

REGIONAL WEATHER ROUNDUP
NATIONAL WEATHER SERVICE CHARLESTON SC
700 PM EDT THU MAY 28 2015

NOTE: "FAIR" INDICATES FEW OR NO CLOUDS BELOW 12,000 FEET WITH NO
SIGNIFICANT WEATHER AND/OR OBSTRUCTIONS TO VISIBILITY.

NOT ALL STATIONS ARE QUALITY CONTROLLED BY THE NATIONAL
WEATHER SERVICE. USE DATA WITH CAUTION...ESPECIALLY
DEWPOINT OBSERVATIONS.

SCZ027-030-031-034>040-042>050-290000-
...SOUTHEAST SOUTH CAROLINA...

CITY           SKY/WX    TMP DP  RH WIND       PRES   REMARKS
N CHARLESTON   MOSUNNY   79  60  52 E9G21     30.17S
WATERFRONT PAR   N/A     78  67  69 SE7       30.14S
MOUNT PLEASANT FAIR      77  64  65 E5        30.18R
JOHNS ISLAND   PTCLDY    77  66  69 E6        30.18R
PINOPOLIS        N/A     86  64  48 VRB3      30.09R
MONCKS CORNER  FAIR      81  63  54 SE6       30.17R
SUMMERVILLE    FAIR      81  63  54 SE5       30.18R
BEAUFORT MCAS  MOSUNNY   80  61  52 E10       30.17R
BEAUFORT ARPT  FAIR      79  64  61 E7        30.17R
HILTON HEAD IS SUNNY     79  64  61 NE6       30.17R
WALTERBORO     CLEAR     79  59  50 SE8       30.17R
ALLENDALE      FAIR      82  68  61 SE10      30.15R

...SOUTHERN MIDLANDS AND PEE DEE...

CITY           SKY/WX    TMP DP  RH WIND       PRES   REMARKS
GEORGETOWN     NOT AVBL
KINGSTREE      NOT AVBL
ORANGEBURG     SUNNY     84  65  52 SE8       30.15R
BARNWELL       FAIR      84  66  54 E16G24    30.16R
AIKEN          FAIR      82  59  44 SE7       30.18S
MANNING        FAIR      81  59  47 SE5       30.16R
COLUMBIA       MOSUNNY   87  64  46 E12       30.14R
SUMTER         SUNNY     84  66  55 E13       30.14R
FLORENCE       SUNNY     84  65  52 S12       30.15R
MYRTLE BEACH   SUNNY     79  63  57 S8        30.20F
N MYRTLE BEACH SUNNY     77  63  61 VRB5      30.18F

$$

GAZ063-065-086>088-099>101-113>116-118-119-134>141-150-290000-
...SOUTHEAST GEORGIA...

CITY           SKY/WX    TMP DP  RH WIND       PRES   REMARKS
SAVANNAH ARPT  MOSUNNY   81  61  50 E14       30.16R
HUNTER AAF     SUNNY     79  67  64 SE7       30.14R
FORT STEWART   MOSUNNY   81  63  54 E12       30.14R
STATESBORO     MOSUNNY   83  69  63 SE7       30.15R
SYLVANIA       CLEAR     83  69  62 SE6       30.16R
CLAXTON        FAIR      81  64  57 SE8       30.15R

...CSRA...CENTRAL AND FAR SOUTHEAST GEORGIA...

CITY           SKY/WX    TMP DP  RH WIND       PRES   REMARKS
THOMSON        MOSUNNY   80  72  76 N7        30.20R
AUGUSTA-BUSH   PTSUNNY   86  63  45 SE6       30.13R
AUGUSTA-DANIEL MOSUNNY   86  62  44 SE6       30.15S
SWAINSBORO     FAIR      88  63  42 S5        30.14S
VIDALIA        MOSUNNY   84  63  48 SE5       30.14R
EASTMAN        FAIR      84  64  49 SE3       30.15S
HAZLEHURST     FAIR      85  57  38 E6        30.12S
ALMA           SUNNY     83  59  44 E6        30.13R
WAYCROSS       SUNNY     83  63  51 SE8       30.13S
JESUP          FAIR      82  64  54 SE8       30.15R
BAXLEY         FAIR      86  59  39 SE6       30.14R
BRUNSWICK        N/A     81  61  50 E9        30.16R
SAINT SIMONS   NOT AVBL

$$

SCZ027-028-034-036>038-045-046-048>050-GAZ119-141-290000-
...LAKE AND SUPPLEMENTAL COASTAL OBSERVATIONS...

STATION/POSITION TIME  TEMP    WIND        PRES    WAVE   SWELL
                       AIR SEA DIR/SP/G            HT/PER HT/PER/DIR
                 (UTC) (F)     (DEG/KT/KT) (MB)    (FT/S) (FT/S/D)
UPR LAKE MARION  NOT AVBL
WINYAH BAY       2245   77     130/  7     1021.0S
LAKE MURRAY      2300   84     150/  4/  7 1020.0R
ACE BASIN NERRS  NOT AVBL
FORT PULASKI     2300   77 80   80/  9/ 11 1022.0R
SAPELO ISLAND    2300   81      90/  5     1021.0S

$$

ANZ835-935-AMZ111-154-330-350-352-354-370-450-454-472-290000-
...C-MAN AND BUOY OBSERVATIONS...

STATION/POSITION TIME  TEMP    WIND        PRES    WAVE   SWELL
                       AIR SEA DIR/SP/G            HT/PER HT/PER/DIR
                 (UTC) (F)     (DEG/KT/KT) (MB)    (FT/S) (FT/S/D)
BUOY 41004       2250   76 79  100/ 10/ 12 1021.1F   3/ 8   3/ 8
BUOY 41008       2250   77 79   70/ 10/ 12 1021.1R   3/ 9   3/110/ 9
FOLLY BEACH CMAN 2300   76     110/  8/  9 1022.0R
CAPERS NEARSHORE 2208   77     110/ 10/ 14 1021.7F
FRIPP NEARSHORE  2200   78     110/ 12/ 12 1020.8


STATION/POSITION TIME  TEMP    WIND        PRES    WAVE   SWELL
                       AIR SEA DIR/SP/G            HT/PER HT/PER/DIR
                 (UTC) (F)     (DEG/KT/KT) (MB)    (FT/S) (FT/S/D)
5E ST. MARYS GA  2221      80                N/A     3/ 8
FRYING PAN BUOY  2250   77 77  110/  8/ 10 1022.6F   3/ 8   3/100/ 8
BUOY 41025       2250   76 78  130/  8/ 10 1023.0F   4/ 8   3/ 90/ 8
CAPE LOOKOUT NC  2300   75     140/  7/  9 1022.3F
BUOY 41002       2250   74 75   50/ 14/ 17 1021.4F   6/ 9   5/100/ 9
BUOY 41010       2220   77 81   60/ 14/ 16 1019.7F
ST AUGUSTINE FL  2300   77 81  100/  8/ 10 1021.2R


$$


USA.gov is the U.S. government's official web portal to all federal, state and local government web resources and services.